| time (UTC) | temp C | wind direction | speed KPH | gust KPH | rain 1hr cm | rain 24hr cm | rain mn cm | humidity % | barometer mb |
| 20260507085642 | 7 | 175 | 0.0 | 4.8 | 0.28 | 2.82 | 2.59 | 97 | 1002.2 |
| 20260507082644 | 7 | 152 | 0.0 | 3.2 | 0.23 | 2.67 | 2.44 | 97 | 1001.8 |
| 20260507081145 | 7 | 165 | 1.6 | 4.8 | 0.23 | 2.59 | 2.39 | 97 | 1001.5 |
| 20260507075644 | 7 | 161 | 0.0 | 4.8 | 0.20 | 2.51 | 2.29 | 97 | 1001.3 |
| 20260507074142 | 7 | 179 | 0.0 | 9.7 | 0.23 | 2.49 | 2.26 | 97 | 1001.1 |
| 20260507072644 | 8 | 173 | 1.6 | 8.0 | 0.23 | 2.41 | 2.21 | 99 | 1001.0 |
| 20260507065642 | 8 | 169 | 0.0 | 6.4 | 0.28 | 2.29 | 2.08 | 99 | 1000.7 |
| 20260507064142 | 9 | 168 | 0.0 | 3.2 | 0.30 | 2.21 | 2.01 | 99 | 1000.4 |
| 20260507061142 | 9 | 163 | 0.0 | 4.8 | 0.43 | 2.18 | 1.88 | 99 | 1000.1 |
| 20260507055643 | 9 | 158 | 0.0 | 1.6 | 0.56 | 2.11 | 1.78 | 99 | 999.9 |
| 20260507054143 | 9 | 157 | 0.0 | 4.8 | 0.58 | 2.03 | 1.68 | 99 | 999.8 |
| 20260507052643 | 9 | 149 | 0.0 | 0.0 | 0.56 | 1.93 | 1.57 | 99 | 999.5 |
| 20260507051143 | 9 | 159 | 0.0 | 3.2 | 0.43 | 1.83 | 1.42 | 99 | 999.3 |
| 20260507045644 | 9 | 173 | 0.0 | 8.0 | 0.30 | 1.60 | 1.22 | 99 | 999.0 |
| 20260507044144 | 10 | 145 | 0.0 | 3.2 | 0.23 | 1.45 | 1.07 | 99 | 998.9 |
| 20260507042642 | 10 | 147 | 0.0 | 3.2 | 0.25 | 1.40 | 1.02 | 99 | 998.7 |
| 20260507041143 | 10 | 175 | 0.0 | 3.2 | 0.28 | 1.37 | 0.97 | 99 | 998.4 |
| 20260507035644 | 10 | 181 | 0.0 | 4.8 | 0.41 | 1.27 | 0.89 | 99 | 998.3 |
| 20260507034144 | 10 | 192 | 0.0 | 6.4 | 0.38 | 1.22 | 0.84 | 99 | 998.1 |
| 20260507032642 | 10 | 141 | 0.0 | 1.6 | 0.28 | 1.12 | 0.74 | 99 | 998.1 |
| 20260507031142 | 10 | 142 | 0.0 | 9.7 | 0.23 | 1.07 | 0.69 | 99 | 998.0 |
| 20260507025643 | 10 | 186 | 0.0 | 9.7 | 0.03 | 0.86 | 0.46 | 99 | 997.7 |
| 20260507024143 | 10 | 235 | 4.8 | 11.3 | 0.00 | 0.84 | 0.43 | 99 | 997.5 |
| 20260507022642 | 10 | 201 | 3.2 | 11.3 | 0.00 | 0.84 | 0.43 | 99 | 997.5 |
| 20260507021144 | 11 | 174 | 1.6 | 6.4 | 0.00 | 0.84 | 0.43 | 99 | 997.5 |
| 20260507015643 | 11 | 192 | 4.8 | 6.4 | 0.00 | 0.84 | 0.43 | 98 | 997.6 |
| 20260507014142 | 11 | 198 | 1.6 | 9.7 | 0.00 | 0.84 | 0.43 | 98 | 997.3 |
| 20260507011144 | 11 | 234 | 3.2 | 9.7 | 0.00 | 0.89 | 0.43 | 98 | 997.5 |
| 20260507005641 | 11 | 177 | 0.0 | 4.8 | 0.00 | 0.94 | 0.43 | 98 | 997.4 |
| 20260507004143 | 11 | 191 | 4.8 | 8.0 | 0.00 | 0.97 | 0.43 | 98 | 997.4 |
| 20260507002643 | 11 | 181 | 0.0 | 4.8 | 0.00 | 1.04 | 0.43 | 98 | 997.4 |
| 20260507001144 | 11 | 150 | 0.0 | 3.2 | 0.03 | 1.17 | 0.43 | 98 | 997.3 |
| 20260506235642 | 11 | 177 | 1.6 | 4.8 | 0.05 | 1.35 | 0.43 | 98 | 997.3 |
| 20260506234141 | 11 | 189 | 1.6 | 8.0 | 0.05 | 1.57 | 0.43 | 98 | 997.3 |
| 20260506232643 | 11 | 187 | 0.0 | 6.4 | 0.05 | 1.63 | 0.43 | 98 | 997.3 |
| 20260506231141 | 12 | 190 | 0.0 | 8.0 | 0.03 | 1.68 | 0.41 | 97 | 997.4 |
| 20260506225645 | 12 | 181 | 0.0 | 4.8 | 0.00 | 1.68 | 0.38 | 97 | 997.3 |
| 20260506224143 | 12 | 187 | 3.2 | 6.4 | 0.03 | 1.70 | 0.38 | 97 | 997.1 |
| 20260506222642 | 12 | 200 | 1.6 | 6.4 | 0.03 | 1.78 | 0.38 | 97 | 997.1 |
| 20260506221143 | 12 | 208 | 0.0 | 4.8 | 0.05 | 1.85 | 0.38 | 97 | 996.8 |
| 20260506215642 | 12 | 158 | 0.0 | 6.4 | 0.08 | 1.93 | 0.38 | 97 | 997.0 |
| 20260506214141 | 12 | 184 | 0.0 | 4.8 | 0.05 | 1.96 | 0.36 | 97 | 996.9 |
| 20260506212642 | 12 | 178 | 0.0 | 8.0 | 0.05 | 2.01 | 0.36 | 97 | 996.8 |
| 20260506211142 | 12 | 181 | 0.0 | 3.2 | 0.03 | 2.03 | 0.30 | 99 | 996.9 |
| 20260506204143 | 13 | 201 | 0.0 | 4.8 | 0.00 | 2.11 | 0.28 | 99 | 996.5 |
| 20260506202643 | 13 | 190 | 0.0 | 4.8 | 0.00 | 2.16 | 0.28 | 99 | 996.6 |
| 20260506201141 | 13 | 186 | 1.6 | 4.8 | 0.00 | 2.21 | 0.28 | 99 | 996.5 |
| 20260506195641 | 13 | 179 | 0.0 | 4.8 | 0.00 | 2.26 | 0.28 | 99 | 996.4 |
| 20260506194142 | 13 | 193 | 0.0 | 9.7 | 0.03 | 2.26 | 0.28 | 99 | 996.2 |
| 20260506192642 | 13 | 191 | 0.0 | 9.7 | 0.10 | 2.26 | 0.28 | 99 | 996.1 |
| 20260506191143 | 13 | 186 | 1.6 | 6.4 | 0.18 | 2.26 | 0.28 | 99 | 995.7 |
| 20260506185641 | 13 | 196 | 1.6 | 9.7 | 0.25 | 2.26 | 0.28 | 99 | 995.7 |
| 20260506184142 | 13 | 175 | 0.0 | 4.8 | 0.25 | 2.24 | 0.25 | 98 | 995.5 |
| 20260506182641 | 13 | 147 | 0.0 | 0.0 | 0.18 | 2.16 | 0.18 | 97 | 995.6 |
| 20260506181141 | 13 | 135 | 0.0 | 3.2 | 0.10 | 2.08 | 0.10 | 95 | 995.5 |
| 20260506174143 | 14 | 217 | 1.6 | 11.3 | 0.00 | 1.96 | 0.00 | 93 | 995.2 |
| 20260506172641 | 15 | 176 | 3.2 | 11.3 | 0.00 | 1.96 | 0.00 | 90 | 994.9 |
| 20260506171141 | 15 | 181 | 1.6 | 9.7 | 0.00 | 1.96 | 0.00 | 88 | 994.6 |
| 20260506164141 | 16 | 166 | 0.0 | 4.8 | 0.00 | 1.96 | 0.00 | 86 | 994.5 |
| 20260506155641 | 18 | 170 | 0.0 | 6.4 | 0.03 | 1.96 | 1.96 | 81 | 994.4 |
| 20260506154143 | 17 | 189 | 0.0 | 6.4 | 0.03 | 1.96 | 1.96 | 81 | 994.3 |
| 20260506152642 | 17 | 200 | 3.2 | 9.7 | 0.18 | 1.96 | 1.96 | 82 | 994.4 |
| 20260506151142 | 17 | 135 | 0.0 | 1.6 | 0.20 | 1.96 | 1.96 | 82 | 994.2 |
| 20260506145643 | 17 | 181 | 0.0 | 4.8 | 0.18 | 1.93 | 1.93 | 83 | 994.4 |
| 20260506144142 | 17 | 135 | 0.0 | 0.0 | 0.18 | 1.93 | 1.93 | 79 | 994.4 |
| 20260506142643 | 18 | 135 | 0.0 | 3.2 | 0.03 | 1.78 | 1.78 | 68 | 994.5 |
| 20260506141140 | 20 | 135 | 0.0 | 1.6 | 0.00 | 1.75 | 1.75 | 62 | 994.5 |
| 20260506135642 | 21 | 0 | 0.0 | 0.0 | 0.00 | 1.75 | 1.75 | 58 | 994.4 |
| 20260506134142 | 22 | 135 | 1.6 | 4.8 | 0.00 | 1.75 | 1.75 | 56 | 994.7 |
| 20260506132642 | 24 | 144 | 0.0 | 3.2 | 0.00 | 1.75 | 1.75 | 51 | 994.6 |
| 20260506131142 | 23 | 140 | 0.0 | 4.8 | 0.00 | 1.75 | 1.75 | 58 | 994.8 |
| 20260506125644 | 21 | 141 | 0.0 | 4.8 | 0.00 | 1.75 | 1.75 | 64 | 994.8 |
| 20260506124142 | 20 | 140 | 0.0 | 1.6 | 0.00 | 1.78 | 1.75 | 65 | 995.1 |
| 20260506122640 | 21 | 143 | 0.0 | 6.4 | 0.00 | 1.78 | 1.75 | 63 | 995.0 |
| 20260506121141 | 21 | 135 | 0.0 | 4.8 | 0.00 | 1.78 | 1.75 | 66 | 995.0 |
| 20260506115642 | 21 | 135 | 1.6 | 4.8 | 0.00 | 1.78 | 1.75 | 65 | 995.0 |
| 20260506114142 | 21 | 151 | 0.0 | 4.8 | 0.00 | 1.78 | 1.75 | 68 | 994.7 |
| 20260506111141 | 19 | 137 | 0.0 | 4.8 | 0.00 | 1.78 | 1.75 | 72 | 994.9 |
| 20260506105642 | 19 | 181 | 0.0 | 3.2 | 0.00 | 1.78 | 1.75 | 74 | 995.1 |
| 20260506104141 | 20 | 137 | 0.0 | 4.8 | 0.00 | 1.78 | 1.75 | 71 | 995.2 |
| 20260506102642 | 21 | 147 | 0.0 | 4.8 | 0.00 | 1.78 | 1.75 | 72 | 995.2 |
| 20260506101140 | 17 | 135 | 0.0 | 3.2 | 0.00 | 1.78 | 1.75 | 81 | 995.1 |
| 20260506095642 | 18 | 135 | 0.0 | 1.6 | 0.00 | 1.78 | 1.75 | 77 | 995.1 |
| 20260506094143 | 20 | 135 | 0.0 | 4.8 | 0.00 | 1.78 | 1.75 | 75 | 994.9 |